TimeMDT,TemperatureF,Dew PointF,Humidity,Sea Level PressureIn,VisibilityMPH,Wind Direction,Wind SpeedMPH,Gust SpeedMPH,PrecipitationIn,Events,Conditions,WindDirDegrees,DateUTC
12:56 AM,50.0,39.9,68,30.12,10.0,SSE,4.6,-,N/A,,Clear,150,2013-09-11 06:56:00
1:56 AM,46.0,39.0,76,30.13,10.0,Calm,Calm,-,N/A,,Clear,0,2013-09-11 07:56:00
2:56 AM,46.0,39.0,76,30.13,10.0,South,5.8,-,N/A,,Clear,170,2013-09-11 08:56:00
3:56 AM,46.9,37.9,71,30.14,10.0,SE,3.5,-,N/A,,Clear,140,2013-09-11 09:56:00
4:56 AM,42.1,36.0,79,30.16,10.0,SSE,8.1,-,N/A,,Clear,160,2013-09-11 10:56:00
5:56 AM,44.1,37.9,79,30.18,10.0,Calm,Calm,-,N/A,,Clear,0,2013-09-11 11:56:00
6:56 AM,46.0,37.9,73,30.19,10.0,SSE,3.5,-,N/A,,Clear,160,2013-09-11 12:56:00
7:56 AM,48.0,39.9,74,30.22,10.0,Variable,3.5,-,N/A,,Clear,0,2013-09-11 13:56:00
8:56 AM,55.0,39.9,57,30.25,10.0,Calm,Calm,-,N/A,,Clear,0,2013-09-11 14:56:00
9:56 AM,62.1,39.9,44,30.22,10.0,Variable,3.5,-,N/A,,Clear,0,2013-09-11 15:56:00
10:56 AM,66.0,39.9,38,30.23,10.0,Calm,Calm,-,N/A,,Clear,0,2013-09-11 16:56:00
11:56 AM,71.1,39.9,32,30.21,10.0,WSW,5.8,-,N/A,,Clear,250,2013-09-11 17:56:00
12:56 PM,77.0,39.9,26,30.18,10.0,Variable,4.6,-,N/A,,Clear,0,2013-09-11 18:56:00
1:56 PM,81.0,37.9,21,30.16,10.0,Calm,Calm,-,N/A,,Clear,0,2013-09-11 19:56:00
2:56 PM,82.0,36.0,19,30.15,10.0,ENE,10.4,17.3,N/A,,Clear,70,2013-09-11 20:56:00
3:56 PM,82.0,37.0,20,30.14,10.0,NE,12.7,17.3,N/A,,Clear,50,2013-09-11 21:56:00
4:56 PM,82.0,39.0,22,30.15,10.0,ENE,15.0,-,N/A,,Clear,70,2013-09-11 22:56:00
5:56 PM,80.1,37.9,22,30.15,10.0,ENE,13.8,18.4,N/A,,Clear,60,2013-09-11 23:56:00
6:12 PM,80.6,37.4,21,30.23,10.0,ESE,12.7,20.7,N/A,,Clear,120,2013-09-12 00:12:00
6:56 PM,77.0,37.9,24,30.15,10.0,ESE,9.2,-,N/A,,Clear,110,2013-09-12 00:56:00
7:56 PM,72.0,39.9,31,30.17,10.0,East,6.9,-,N/A,,Clear,90,2013-09-12 01:56:00
8:56 PM,71.1,42.1,35,30.17,10.0,ESE,6.9,-,N/A,,Clear,110,2013-09-12 02:56:00
9:56 PM,68.0,43.0,40,30.17,10.0,ESE,3.5,-,N/A,,Clear,120,2013-09-12 03:56:00
10:56 PM,66.9,44.1,44,30.16,10.0,WSW,3.5,-,N/A,,Clear,250,2013-09-12 04:56:00
11:56 PM,64.9,44.1,47,30.17,10.0,NE,10.4,-,N/A,,Clear,50,2013-09-12 05:56:00